Quemado, NM

8:04 AM MDT on August 29, 2016 (GMT -0600)
Lordsburg

Weather History for KLSB - November, 2012

Change the Weather History Date:

Tuesday, November 27, 2012

  Actual Average Record
Temperature  
Mean Temperature 56 °F -  
Max Temperature 68 °F 60 °F 69 °F (2015)
Min Temperature 44 °F 25 °F 28 °F (2014)
Degree Days  
Heating Degree Days 9    
Growing Degree Days 6 (Base 50)    
Moisture  
Dew Point 25 °F    
Average Humidity 33    
Maximum Humidity 43    
Minimum Humidity 21    
Precipitation  
Precipitation 0.00 in - - ()
Sea Level Pressure  
Sea Level Pressure 30.29 in    
Wind  
Wind Speed 11 mph ()    
Max Wind Speed 20 mph    
Max Gust Speed 28 mph    
Visibility 10.0 miles    
Events      
Averages and records for this station are not official NWS values.
T = Trace of Precipitation, MM = Missing Value Source: Averaged Metar Reports

Daily Weather History Graph

Daily Weather History Graph

Search for Another Location

Airport or City:

Trip Planner

Search our weather history database for the weather conditions in past years. The results will help you decide how hot, cold, wet, or windy it might be!

Date:

Astronomy

Nov. 27, 2012 Rise Set
Actual Time 6:55 AM MST 5:09 PM MST
Civil Twilight 6:28 AM MST 5:36 PM MST
Nautical Twilight 5:58 AM MST 6:06 PM MST
Astronomical Twilight 5:28 AM MST 6:36 PM MST
Moon 4:42 PM MST (11/27) 6:04 AM MST (11/27)
Length of Visible Light 11h 07m
Length of Day
10h 14m
Waxing Gibbous, 99% of the Moon is Illuminated
Nov 27
Waxing Gibbous
Nov 28
Full
Dec 6
Last Quarter
Dec 13
New
Dec 19
First Quarter

Hourly Weather History & Observations

Time (MST) Temp. Windchill Dew Point Humidity Pressure Visibility Wind Dir Wind Speed Gust Speed Precip Events Conditions
3:15 AM 46.4 °F 42.4 °F 19.4 °F 34% 30.27 in 10.0 mi SSE 8.1 mph - N/A   Clear
3:35 AM 44.6 °F 39.2 °F 19.4 °F 37% 30.27 in 10.0 mi SSE 10.4 mph - N/A   Clear
3:55 AM 44.6 °F 39.7 °F 19.4 °F 37% 30.27 in 10.0 mi SSE 9.2 mph - N/A   Clear
4:15 AM 44.6 °F 39.2 °F 21.2 °F 39% 30.28 in 10.0 mi SSE 10.4 mph - N/A   Clear
4:35 AM 44.6 °F 39.2 °F 21.2 °F 39% 30.28 in 10.0 mi SSE 10.4 mph - N/A   Clear
4:55 AM 44.6 °F 38.8 °F 23.0 °F 43% 30.29 in 10.0 mi SSE 11.5 mph - N/A   Clear
5:15 AM 44.6 °F 38.8 °F 23.0 °F 43% 30.29 in 10.0 mi SSE 11.5 mph - N/A   Clear
5:35 AM 44.6 °F 38.8 °F 23.0 °F 43% 30.29 in 10.0 mi SSE 11.5 mph - N/A   Clear
5:55 AM 44.6 °F 38.4 °F 23.0 °F 43% 30.29 in 10.0 mi SSE 12.7 mph - N/A   Clear
6:15 AM 46.4 °F 40.7 °F 23.0 °F 40% 30.30 in 10.0 mi SSE 12.7 mph - N/A   Clear
6:35 AM 44.6 °F 38.8 °F 23.0 °F 43% 30.31 in 10.0 mi SSE 11.5 mph - N/A   Clear
6:55 AM 44.6 °F 38.1 °F 23.0 °F 43% 30.31 in 10.0 mi SSE 13.8 mph - N/A   Clear
7:15 AM 44.6 °F 37.4 °F 23.0 °F 43% 30.32 in 10.0 mi SSE 16.1 mph - N/A   Clear
7:35 AM 46.4 °F 39.8 °F 23.0 °F 40% 30.33 in 10.0 mi SSE 16.1 mph 19.6 mph N/A   Clear
7:55 AM 46.4 °F 39.8 °F 23.0 °F 40% 30.34 in 10.0 mi SSE 16.1 mph 20.7 mph N/A   Clear
8:15 AM 50.0 °F - 23.0 °F 35% 30.35 in 10.0 mi SSE 16.1 mph 21.9 mph N/A   Clear
8:35 AM 51.8 °F - 24.8 °F 35% 30.36 in 10.0 mi SSE 16.1 mph 21.9 mph N/A   Clear
8:55 AM 53.6 °F - 26.6 °F 35% 30.36 in 10.0 mi SE 13.8 mph 23.0 mph N/A   Clear
9:15 AM 55.4 °F - 26.6 °F 33% 30.36 in 10.0 mi SE 16.1 mph 26.5 mph N/A   Clear
9:35 AM 57.2 °F - 28.4 °F 33% 30.36 in 10.0 mi SE 17.3 mph - N/A   Clear
9:55 AM 57.2 °F - 26.6 °F 31% 30.36 in 10.0 mi SE 18.4 mph 27.6 mph N/A   Clear
10:15 AM 59.0 °F - 26.6 °F 29% 30.36 in 10.0 mi SE 19.6 mph 24.2 mph N/A   Clear
10:35 AM 59.0 °F - 26.6 °F 29% 30.36 in 10.0 mi ESE 17.3 mph 25.3 mph N/A   Clear
10:55 AM 60.8 °F - 26.6 °F 27% 30.36 in 10.0 mi SE 17.3 mph 24.2 mph N/A   Clear
11:15 AM 60.8 °F - 26.6 °F 27% 30.35 in 10.0 mi SE 16.1 mph - N/A   Clear
11:35 AM 62.6 °F - 26.6 °F 26% 30.34 in 10.0 mi SE 16.1 mph 20.7 mph N/A   Clear
11:55 AM 62.6 °F - 26.6 °F 26% 30.33 in 10.0 mi ESE 17.3 mph 23.0 mph N/A   Clear
12:15 PM 62.6 °F - 26.6 °F 26% 30.32 in 10.0 mi SE 16.1 mph 19.6 mph N/A   Clear
12:35 PM 64.4 °F - 26.6 °F 24% 30.31 in 10.0 mi SE 16.1 mph 21.9 mph N/A   Clear
12:55 PM 66.2 °F - 26.6 °F 23% 30.29 in 10.0 mi SE 13.8 mph 19.6 mph N/A   Clear
1:15 PM 66.2 °F - 26.6 °F 23% 30.28 in 10.0 mi SE 12.7 mph 20.7 mph N/A   Clear
1:35 PM 68.0 °F - 26.6 °F 21% 30.28 in 10.0 mi ESE 12.7 mph 20.7 mph N/A   Clear
1:55 PM 68.0 °F - 26.6 °F 21% 30.27 in 10.0 mi SE 10.4 mph 18.4 mph N/A   Clear
2:15 PM 68.0 °F - 26.6 °F 21% 30.26 in 10.0 mi SE 15.0 mph 19.6 mph N/A   Clear
2:35 PM 68.0 °F - 26.6 °F 21% 30.26 in 10.0 mi SE 15.0 mph - N/A   Clear
2:55 PM 68.0 °F - 26.6 °F 21% 30.25 in 10.0 mi SE 13.8 mph 19.6 mph N/A   Clear
3:15 PM 68.0 °F - 26.6 °F 21% 30.25 in 10.0 mi ESE 13.8 mph 19.6 mph N/A   Clear
3:35 PM 68.0 °F - 26.6 °F 21% 30.25 in 10.0 mi SE 13.8 mph 19.6 mph N/A   Clear
3:55 PM 66.2 °F - 26.6 °F 23% 30.25 in 10.0 mi SE 12.7 mph 18.4 mph N/A   Clear
4:15 PM 64.4 °F - 26.6 °F 24% 30.24 in 10.0 mi ESE 11.5 mph 16.1 mph N/A   Clear
4:55 PM 64.4 °F - 26.6 °F 24% 30.24 in 10.0 mi SE 10.4 mph - N/A   Clear
5:15 PM 62.6 °F - 26.6 °F 26% 30.24 in 10.0 mi SE 11.5 mph - N/A   Clear
5:35 PM 60.8 °F - 26.6 °F 27% 30.24 in 10.0 mi SE 9.2 mph - N/A   Clear
5:55 PM 59.0 °F - 26.6 °F 29% 30.24 in 10.0 mi SE 9.2 mph - N/A   Clear
6:15 PM 57.2 °F - 26.6 °F 31% 30.25 in 10.0 mi SE 9.2 mph - N/A   Clear
6:35 PM 55.4 °F - 26.6 °F 33% 30.25 in 10.0 mi SSE 9.2 mph - N/A   Clear
6:55 PM 53.6 °F - 26.6 °F 35% 30.26 in 10.0 mi SSE 9.2 mph - N/A   Clear
7:15 PM 53.6 °F - 26.6 °F 35% 30.27 in 10.0 mi SSE 10.4 mph - N/A   Clear
7:35 PM 53.6 °F - 26.6 °F 35% 30.27 in 10.0 mi SSE 9.2 mph - N/A   Clear
7:55 PM 53.6 °F - 26.6 °F 35% 30.27 in 10.0 mi SSE 10.4 mph - N/A   Clear
8:15 PM 53.6 °F - 26.6 °F 35% 30.27 in 10.0 mi SSE 10.4 mph - N/A   Clear
8:35 PM 51.8 °F - 26.6 °F 38% 30.28 in 10.0 mi South 9.2 mph - N/A   Clear
8:55 PM 51.8 °F - 26.6 °F 38% 30.27 in 10.0 mi SSE 10.4 mph - N/A   Clear
9:15 PM 51.8 °F - 26.6 °F 38% 30.28 in 10.0 mi SSE 8.1 mph - N/A   Clear
9:55 PM 51.8 °F - 26.6 °F 38% 30.28 in 10.0 mi South 6.9 mph - N/A   Clear
10:15 PM 51.8 °F - 26.6 °F 38% 30.28 in 10.0 mi SSE 8.1 mph - N/A   Clear
10:55 PM 51.8 °F - 26.6 °F 38% 30.29 in 10.0 mi SSE 9.2 mph - N/A   Clear
11:15 PM 51.8 °F - 26.6 °F 38% 30.29 in 10.0 mi SSE 9.2 mph - N/A   Clear
11:35 PM 50.0 °F - 26.6 °F 40% 30.30 in 10.0 mi South 9.2 mph - N/A   Clear
11:55 PM 50.0 °F - 26.6 °F 40% 30.29 in 10.0 mi SSE 8.1 mph - N/A   Clear